[TLELIST] Archives

 

[list_settings.list_name] Current TLEs

August 8th 2011 PST

HST 1 20580U 90037B 11219.90045777 .00001240 00000-0 81079-4 0 8138 2 20580 028.4710 038.6164 0003212 307.5869 052.4488 15.01447663967430 ISS (ZARYA) 1 25544U 98067A 11220.37158565 .00004586 00000-0 61164-4 0 8541 2 25544 051.6393 258.0860 0012828 054.3148 131.8091 15.60282006729050 CXO 1 25867U 99040B 11213.95833333 -.00000639 00000-0 00000+0 0 6293 2 25867 069.7252 028.4195 8642897 276.9147 001.2242 00.37800570 7941 ____________________________________________________________________ These 2-Line ...Continue Reading

[list_settings.list_name] Current TLEs

August 7th 2011 PST

HST 1 20580U 90037B 11217.97277732 .00000877 00000-0 53624-4 0 8120 2 20580 028.4706 051.2125 0003281 285.7724 074.2496 15.01443841967149 ISS (ZARYA) 1 25544U 98067A 11219.40947917 -.00004516 00000-0 -47654-4 0 8486 2 25544 051.6417 262.9217 0012576 049.2894 129.0675 15.60278182728908 CXO 1 25867U 99040B 11213.95833333 -.00000639 00000-0 00000+0 0 6293 2 25867 069.7252 028.4195 8642897 276.9147 001.2242 00.37800570 7941 ____________________________________________________________________ These 2-Line ...Continue Reading

[list_settings.list_name] Current TLEs

August 6th 2011 PST

HST 1 20580U 90037B 11217.97277732 .00000877 00000-0 53624-4 0 8120 2 20580 028.4706 051.2125 0003281 285.7724 074.2496 15.01443841967149 ISS (ZARYA) 1 25544U 98067A 11218.50623977 .00008102 00000-0 10324-3 0 8412 2 25544 051.6398 267.4691 0012768 047.4125 094.0969 15.60251110728765 CXO 1 25867U 99040B 11213.95833333 -.00000639 00000-0 00000+0 0 6293 2 25867 069.7252 028.4195 8642897 276.9147 001.2242 00.37800570 7941 ____________________________________________________________________ These 2-Line ...Continue Reading

[list_settings.list_name] Current TLEs

August 5th 2011 PST

HST 1 20580U 90037B 11215.04801577 .00000741 00000-0 43304-4 0 8119 2 20580 028.4710 070.3193 0003627 254.6533 105.3631 15.01440311966705 ISS (ZARYA) 1 25544U 98067A 11217.21144816 .00005453 00000-0 71654-4 0 8341 2 25544 051.6393 273.9857 0012809 041.7152 022.2770 15.60230410728560 CXO 1 25867U 99040B 11213.95833333 -.00000639 00000-0 00000+0 0 6293 2 25867 069.7252 028.4195 8642897 276.9147 001.2242 00.37800570 7941 ____________________________________________________________________ These 2-Line ...Continue Reading

[list_settings.list_name] Current TLEs

August 4th 2011 PST

HST 1 20580U 90037B 11215.04801577 .00000741 00000-0 43304-4 0 8119 2 20580 028.4710 070.3193 0003627 254.6533 105.3631 15.01440311966705 ISS (ZARYA) 1 25544U 98067A 11216.52067743 .00012999 00000-0 16186-3 0 8292 2 25544 051.6393 277.4590 0012818 038.4849 102.9866 15.60222602728453 CXO 1 25867U 99040B 11213.95833333 -.00000639 00000-0 00000+0 0 6293 2 25867 069.7252 028.4195 8642897 276.9147 001.2242 00.37800570 7941 ____________________________________________________________________ These 2-Line ...Continue Reading

[list_settings.list_name] Current TLEs

August 3rd 2011 PST

HST 1 20580U 90037B 11215.04801577 .00000741 00000-0 43304-4 0 8119 2 20580 028.4710 070.3193 0003627 254.6533 105.3631 15.01440311966705 ISS (ZARYA) 1 25544U 98067A 11215.35901662 .00006134 00000-0 79622-4 0 8243 2 25544 051.6411 283.3001 0012407 036.5289 055.7583 15.60291590728271 CXO 1 25867U 99040B 11213.95833333 -.00000639 00000-0 00000+0 0 6293 2 25867 069.7252 028.4195 8642897 276.9147 001.2242 00.37800570 7941 ____________________________________________________________________ These 2-Line ...Continue Reading

[list_settings.list_name] Current TLEs

August 2nd 2011 PST

HST 1 20580U 90037B 11214.05093849 .00000802 00000-0 47916-4 0 8104 2 20580 028.4714 076.8343 0003749 242.2903 117.7363 15.01439504966550 ISS (ZARYA) 1 25544U 98067A 11214.33302010 .00008415 00000-0 10688-3 0 8196 2 25544 051.6415 288.4672 0012403 033.1075 052.2928 15.60281898728115 CXO 1 25867U 99040B 11213.95833333 -.00000639 00000-0 00000+0 0 6293 2 25867 069.7252 028.4195 8642897 276.9147 001.2242 00.37800570 7941 ____________________________________________________________________ These 2-Line ...Continue Reading

[list_settings.list_name] Current TLEs

August 1st 2011 PST

HST 1 20580U 90037B 11213.05385906 .00000680 00000-0 38690-4 0 8092 2 20580 028.4710 083.3482 0003668 233.5418 126.4824 15.01437882966407 ISS (ZARYA) 1 25544U 98067A 11213.37466133 .00007071 00000-0 90890-4 0 8120 2 25544 051.6412 293.2863 0012335 029.0823 069.6453 15.60266404727960 CXO 1 25867U 99040B 11213.95833333 -.00000639 00000-0 00000+0 0 6293 2 25867 069.7252 028.4195 8642897 276.9147 001.2242 00.37800570 7941 ____________________________________________________________________ These 2-Line ...Continue Reading

[list_settings.list_name] Current TLEs

July 31st 2011 PST

HST 1 20580U 90037B 11211.12617048 .00000718 00000-0 41567-4 0 8081 2 20580 028.4707 095.9389 0003655 213.4679 146.5631 15.01436047966119 ISS (ZARYA) 1 25544U 98067A 11212.35221082 .00005668 00000-0 74185-4 0 8050 2 25544 051.6419 298.4283 0012053 025.8895 085.9805 15.60250202727804 CXO 1 25867U 99040B 11213.95833333 -.00000639 00000-0 00000+0 0 6293 2 25867 069.7252 028.4195 8642897 276.9147 001.2242 00.37800570 7941 ____________________________________________________________________ These 2-Line ...Continue Reading

[list_settings.list_name] Current TLEs

July 30th 2011 PST

HST 1 20580U 90037B 11211.12617048 .00000718 00000-0 41567-4 0 8081 2 20580 028.4707 095.9389 0003655 213.4679 146.5631 15.01436047966119 ISS (ZARYA) 1 25544U 98067A 11211.19632749 .00006463 00000-0 83724-4 0 8005 2 25544 051.6419 304.2427 0012072 021.4210 073.6768 15.60238797727621 CXO 1 25867U 99040B 11211.33333333 -.00000707 00000-0 00000+0 0 6283 2 25867 069.6898 028.6399 8642941 276.9071 003.8168 00.37805382 7930 ____________________________________________________________________ These 2-Line ...Continue Reading
  • This mailing list is a public mailing list - anyone may join or leave, at any time.
  • This mailing list is announce-only.

International Space Station (ISS) / Hubble Space Telescope (HST) / Chandra X-Ray Observatory Orbital Data via EMAIL

Privacy Policy:

Private list